Location: Unspecified
(41.5000°N, 0.0000°E)
Time: 09:05:09
(UTC+00:00)

deb Explorer IX - Pass Details

Date: 29 June 2019
Orbit: 539 x 1112 km, 38.8° (Epoch: 24 July)

Event Time Altitude Azimuth Distance (km) Brightness Sun altitude
Rises 17:53:40 0° 270° (W) 3,926 ? 16.9°
Reaches altitude 10° 17:59:48 10° 232° (SW) 2,953 ? 15.8°
Maximum altitude 18:00:44 10° 224° (SW) 2,923 ? 15.6°
Drops below altitude 10° 18:01:41 10° 217° (SW) 2,934 ? 15.5°
Sets 18:07:39 0° 178° (S) 3,787 ? 14.4°
